Location: Proctor
(47.8934°N, 114.3048°W)
Time: 22:42:19
(UTC+00:00)

CAS-6 - Pass Details

Date: 30 June 2022
Orbit: 613 x 634 km, 97.9° (Epoch: 18 August)

Event Time Altitude Azimuth Distance (km) Brightness Sun altitude
Exits shadow 06:45:08 17° 224° (SW) 1,604 ? -17.8°
Maximum altitude 06:47:23 25° 266° (W) 1,281 ? -17.9°
Drops below altitude 10° 06:50:59 10° 322° (NW) 2,006 ? -18.1°
Sets 06:53:31 0° 336° (NNW) 2,914 ? -18.1°
